Location: Praha
(50.0830°N, 14.4670°E)
Time: 17:21:23
(UTC+01:00)

ISS - Pass Details

Date: 09 January 2020
Orbit: 415 x 421 km, 51.6° (Epoch: 18 January)

Event Time Altitude Azimuth Distance (km) Brightness Sun altitude
Exits shadow 05:40:07 24° 180° (S) 904 -2.0 -21.3°
Drops below altitude 10° 05:42:02 10° 151° (SSE) 1,484 -0.5 -21.0°
Sets 05:44:16 0° 140° (SE) 2,343 0.8 -20.7°
